Home > Time Zones > World Clock > Weather > U.S.A. > Erie > Past weeks

Flag for U.S.A. Weather past 2 weeks in Erie, Pennsylvania, U.S.A.

Now
48 °F

Mostly cloudy.


Feels Like: 42 °F
Forecast: 39 / 45 °F
Wind: 14 mph from Southwest

Location: Erie International Airport

Current Time: Apr 22, 2015 at 12:23:47 AM

Latest Report: Apr 21, 2015 at 10:51 PM


Visibility: 10 mi

Pressure: 29.67 "Hg

Humidity: 44%

Dew point: 27 °F

Location of ErieLocation

Historic Weather in Erie — Graph

°F

Erie temperature yesterday

Maximum temperature yesterday: 53 °F (at 3:51 PM)
Minimum temperature yesterday: 43 °F (at 6:51 AM)
Average temperature yesterday: 48 °F

Past Weeks' High & Low Weather Summary

 TemperatureHumidityPressure
High79 °F (Apr 13, 12:51 PM)97% (Apr 9, 12:51 AM)30.39 "Hg (Apr 9, 12:51 AM)
Low34 °F (Apr 9, 12:51 AM)18% (Apr 16, 11:51 AM)29.36 "Hg (Apr 20, 1:51 PM)
Average51 °F63%30.02 "Hg
* Reported Apr 6 10:51 PM — Apr 21 10:51 PM, Erie, Weather by CustomWeather, © 2015

Note: Actual official high and low records may vary slightly from our data, if they occured in-between our weather recording intervals... More about our weather records

Advertising

Erie weather history for previous 24 hours

 ConditionsComfort  
Time TempWeatherWind HumidityBarometerVisibility
10:51 PM
Tue, Apr 21
48 °FMostly cloudy.14 mph44%29.67 "Hg10 mi
9:51 PM47 °FPassing clouds.10 mph44%29.67 "Hg10 mi
8:51 PM47 °FPartly sunny.10 mph46%29.69 "Hg10 mi
7:51 PM50 °FBroken clouds.25 mph36%29.67 "Hg10 mi
6:51 PM51 °FPartly sunny.18 mph38%29.66 "Hg10 mi
5:51 PM49 °FLight rain. Broken clouds.17 mph52%29.65 "Hg10 mi
4:51 PM50 °FPartly sunny.15 mph39%29.63 "Hg10 mi
3:51 PM53 °FPartly sunny.18 mph34%29.64 "Hg10 mi
2:51 PM52 °FBroken clouds.16 mph38%29.64 "Hg10 mi
1:51 PM50 °FPartly sunny.17 mph43%29.63 "Hg10 mi
12:51 PM49 °FMostly cloudy.18 mph46%29.64 "Hg10 mi
11:51 AM48 °FLight rain. Cloudy.15 mph52%29.64 "Hg10 mi
10:51 AM51 °FBroken clouds.17 mph44%29.63 "Hg10 mi
9:51 AM51 °FSunny.22 mph48%29.65 "Hg10 mi
8:51 AM47 °FScattered clouds.15 mph59%29.66 "Hg10 mi
7:51 AM44 °FPassing clouds.16 mph60%29.66 "Hg10 mi
6:51 AM43 °FPassing clouds.12 mph62%29.66 "Hg10 mi
5:51 AM45 °FOvercast.14 mph58%29.64 "Hg10 mi
4:51 AM46 °FLight rain. Mostly cloudy.14 mph66%29.63 "Hg10 mi
3:51 AM45 °FMostly cloudy.7 mph74%29.62 "Hg10 mi
2:51 AM46 °FMostly cloudy.8 mph71%29.63 "Hg10 mi
1:51 AM45 °FMostly cloudy.10 mph76%29.62 "Hg10 mi
12:51 AM47 °FPartly cloudy.15 mph74%29.61 "Hg10 mi
Weather by CustomWeather, © 2015

See weather overviewHow to use our weather pages